Time,TemperatureF,DewpointF,PressureIn,WindDirection,WindDirectionDegrees,WindSpeedMPH,WindSpeedGustMPH,Humidity,HourlyPrecipIn,Conditions,Clouds,dailyrainin,SoftwareType,DateUTC
2013-06-23 00:01:00,71.6,67.5,29.77,WSW,244,0.0,0.0,87,0.00,,,0.00,vanprod-2.3,2013-06-23 05:01:00,
2013-06-23 00:06:00,71.8,67.7,29.76,WSW,244,0.0,0.0,87,0.00,,,0.00,vanprod-2.3,2013-06-23 05:06:00,
2013-06-23 00:11:00,71.6,67.5,29.76,WSW,244,1.0,0.0,87,0.00,,,0.00,vanprod-2.3,2013-06-23 05:11:00,
2013-06-23 00:16:00,71.6,67.5,29.78,WSW,243,0.0,0.0,87,0.00,,,0.00,vanprod-2.3,2013-06-23 05:16:00,
2013-06-23 00:21:00,71.6,67.5,29.79,WSW,239,1.0,0.0,87,0.00,,,0.00,vanprod-2.3,2013-06-23 05:21:00,
2013-06-23 00:26:00,71.6,67.5,29.78,WSW,239,0.0,0.0,87,0.00,,,0.00,vanprod-2.3,2013-06-23 05:26:00,
2013-06-23 00:31:00,71.6,67.5,29.78,WSW,239,0.0,0.0,87,0.00,,,0.00,vanprod-2.3,2013-06-23 05:31:00,
2013-06-23 00:36:00,71.6,67.5,29.77,WSW,239,0.0,0.0,87,0.00,,,0.00,vanprod-2.3,2013-06-23 05:36:00,
2013-06-23 00:41:00,71.6,67.9,29.77,WSW,239,0.0,0.0,88,0.00,,,0.00,vanprod-2.3,2013-06-23 05:41:00,
2013-06-23 00:46:00,71.8,68.1,29.76,WSW,239,0.0,0.0,88,0.00,,,0.00,vanprod-2.3,2013-06-23 05:46:00,
2013-06-23 00:51:00,71.8,68.1,29.77,WSW,239,1.0,1.0,88,0.00,,,0.00,vanprod-2.3,2013-06-23 05:51:00,
2013-06-23 00:56:00,71.8,68.1,29.76,WSW,239,0.0,0.0,88,0.00,,,0.00,vanprod-2.3,2013-06-23 05:56:00,
2013-06-23 01:01:00,71.8,68.1,29.76,WSW,239,0.0,0.0,88,0.00,,,0.00,vanprod-2.3,2013-06-23 06:01:00,
2013-06-23 01:06:00,71.8,68.1,29.76,WSW,239,0.0,0.0,88,0.00,,,0.00,vanprod-2.3,2013-06-23 06:06:00,
2013-06-23 01:11:00,71.8,68.1,29.78,WSW,239,0.0,0.0,88,0.00,,,0.00,vanprod-2.3,2013-06-23 06:11:00,
2013-06-23 07:49:00,64.0,63.7,29.75,WSW,257,0.0,1.0,99,0.00,,,1.05,vanprod-2.3,2013-06-23 12:49:00,
2013-06-23 07:54:00,64.0,63.7,29.75,WSW,257,0.0,0.0,99,0.00,,,1.05,vanprod-2.3,2013-06-23 12:54:00,
2013-06-23 07:59:00,64.0,63.7,29.75,WSW,257,0.0,1.0,99,0.00,,,1.05,vanprod-2.3,2013-06-23 12:59:00,
2013-06-23 08:04:00,64.0,63.7,29.76,WSW,257,0.0,0.0,99,0.00,,,1.05,vanprod-2.3,2013-06-23 13:04:00,
2013-06-23 08:09:00,64.2,63.9,29.75,WSW,257,0.0,0.0,99,0.00,,,1.05,vanprod-2.3,2013-06-23 13:09:00,
2013-06-23 08:14:00,64.2,63.9,29.76,WSW,257,0.0,0.0,99,0.00,,,1.05,vanprod-2.3,2013-06-23 13:14:00,
2013-06-23 08:19:00,64.3,64.0,29.75,WSW,257,0.0,0.0,99,0.00,,,1.05,vanprod-2.3,2013-06-23 13:19:00,
2013-06-23 08:24:00,64.3,64.0,29.76,WSW,257,0.0,1.0,99,0.00,,,1.05,vanprod-2.3,2013-06-23 13:24:00,
2013-06-23 08:29:00,64.3,64.0,29.76,WSW,257,1.0,2.0,99,0.00,,,1.05,vanprod-2.3,2013-06-23 13:29:00,
2013-06-23 08:34:00,64.5,64.2,29.76,WSW,257,0.0,0.0,99,0.00,,,1.05,vanprod-2.3,2013-06-23 13:34:00,
2013-06-23 08:39:00,64.7,64.4,29.76,WSW,257,0.0,3.0,99,0.00,,,1.05,vanprod-2.3,2013-06-23 13:39:00,
2013-06-23 08:44:00,64.7,64.4,29.76,WSW,257,0.0,0.0,99,0.00,,,1.05,vanprod-2.3,2013-06-23 13:44:00,
2013-06-23 08:49:00,64.7,64.1,29.77,WSW,257,1.0,1.0,98,0.00,,,1.05,vanprod-2.3,2013-06-23 13:49:00,
2013-06-23 08:54:00,64.8,64.5,29.77,South,184,2.0,2.0,99,0.00,,,1.05,vanprod-2.3,2013-06-23 13:54:00,
2013-06-23 08:59:00,65.0,64.4,29.77,WSW,240,2.0,8.0,98,0.00,,,1.05,vanprod-2.3,2013-06-23 13:59:00,
2013-06-23 09:04:00,65.1,64.2,29.77,WNW,282,1.0,2.0,97,0.00,,,1.05,vanprod-2.3,2013-06-23 14:04:00,
2013-06-23 09:09:00,65.3,64.1,29.77,West,271,2.0,0.0,96,0.00,,,1.05,vanprod-2.3,2013-06-23 14:09:00,
2013-06-23 09:14:00,65.6,64.4,29.78,West,268,2.0,2.0,96,0.00,,,1.05,vanprod-2.3,2013-06-23 14:14:00,
2013-06-23 09:19:00,65.9,64.4,29.77,NW,305,2.0,2.0,95,0.00,,,1.05,vanprod-2.3,2013-06-23 14:19:00,
2013-06-23 09:24:00,66.3,64.5,29.76,WNW,302,1.0,3.0,94,0.00,,,1.05,vanprod-2.3,2013-06-23 14:24:00,
2013-06-23 09:29:00,66.8,64.7,29.76,WNW,298,1.0,7.0,93,0.00,,,1.05,vanprod-2.3,2013-06-23 14:29:00,
2013-06-23 09:34:00,67.3,64.6,29.76,WNW,299,1.0,5.0,91,0.00,,,1.05,vanprod-2.3,2013-06-23 14:34:00,
2013-06-23 09:39:00,67.8,64.8,29.75,WNW,287,2.0,2.0,90,0.00,,,1.05,vanprod-2.3,2013-06-23 14:39:00,
2013-06-23 09:44:00,67.9,64.5,29.75,WNW,288,2.0,5.0,89,0.00,,,1.05,vanprod-2.3,2013-06-23 14:44:00,
2013-06-23 09:49:00,68.1,64.1,29.75,West,260,3.0,8.0,87,0.00,,,1.05,vanprod-2.3,2013-06-23 14:49:00,
2013-06-23 09:54:00,68.4,64.1,29.75,West,281,3.0,7.0,86,0.00,,,1.05,vanprod-2.3,2013-06-23 14:54:00,
2013-06-23 09:59:00,68.8,64.1,29.76,NNW,331,1.0,6.0,85,0.00,,,1.05,vanprod-2.3,2013-06-23 14:59:00,
2013-06-23 10:04:00,69.1,64.4,29.76,WNW,301,1.0,1.0,85,0.00,,,1.05,vanprod-2.3,2013-06-23 15:04:00,
2013-06-23 10:09:00,69.4,63.3,29.76,West,277,3.0,3.0,81,0.00,,,1.05,vanprod-2.3,2013-06-23 15:09:00,
2013-06-23 10:14:00,69.9,64.5,29.77,West,268,2.0,3.0,83,0.00,,,1.05,vanprod-2.3,2013-06-23 15:14:00,
2013-06-23 10:19:00,70.1,64.0,29.77,West,279,5.0,7.0,81,0.00,,,1.05,vanprod-2.3,2013-06-23 15:19:00,
2013-06-23 10:24:00,70.6,64.1,29.77,SSW,193,1.0,1.0,80,0.00,,,1.05,vanprod-2.3,2013-06-23 15:24:00,
2013-06-23 10:29:00,70.8,63.6,29.78,WNW,288,3.0,8.0,78,0.00,,,1.05,vanprod-2.3,2013-06-23 15:29:00,
2013-06-23 10:34:00,70.8,63.2,29.78,SE,142,2.0,10.0,77,0.00,,,1.05,vanprod-2.3,2013-06-23 15:34:00,
2013-06-23 10:39:00,71.0,63.4,29.78,WSW,257,2.0,2.0,77,0.00,,,1.05,vanprod-2.3,2013-06-23 15:39:00,
2013-06-23 10:44:00,71.5,64.3,29.78,South,181,1.0,3.0,78,0.00,,,1.05,vanprod-2.3,2013-06-23 15:44:00,
2013-06-23 10:49:00,71.8,63.8,29.78,West,264,3.0,6.0,76,0.00,,,1.05,vanprod-2.3,2013-06-23 15:49:00,
2013-06-23 10:54:00,72.2,64.6,29.78,NW,319,1.0,4.0,77,0.00,,,1.05,vanprod-2.3,2013-06-23 15:54:00,
2013-06-23 10:59:00,72.5,64.1,29.78,WSW,251,2.0,2.0,75,0.00,,,1.05,vanprod-2.3,2013-06-23 15:59:00,
2013-06-23 11:04:00,72.7,63.9,29.78,West,275,4.0,6.0,74,0.00,,,1.05,vanprod-2.3,2013-06-23 16:04:00,
2013-06-23 11:09:00,72.5,63.7,29.78,South,182,2.0,4.0,74,0.00,,,1.05,vanprod-2.3,2013-06-23 16:09:00,
2013-06-23 11:14:00,72.7,63.9,29.78,WNW,282,1.0,3.0,74,0.00,,,1.05,vanprod-2.3,2013-06-23 16:14:00,
2013-06-23 11:19:00,72.7,63.6,29.78,SW,219,2.0,5.0,73,0.00,,,1.05,vanprod-2.3,2013-06-23 16:19:00,
2013-06-23 11:24:00,72.3,63.2,29.78,NW,317,4.0,7.0,73,0.00,,,1.05,vanprod-2.3,2013-06-23 16:24:00,
2013-06-23 11:29:00,72.5,63.4,29.78,SE,146,3.0,6.0,73,0.00,,,1.05,vanprod-2.3,2013-06-23 16:29:00,
2013-06-23 11:34:00,72.5,63.4,29.78,WSW,258,3.0,6.0,73,0.00,,,1.05,vanprod-2.3,2013-06-23 16:34:00,
2013-06-23 11:39:00,73.4,64.2,29.78,NNW,329,1.0,2.0,73,0.00,,,1.05,vanprod-2.3,2013-06-23 16:39:00,
2013-06-23 11:44:00,74.1,65.3,29.78,WSW,240,1.0,1.0,74,0.00,,,1.05,vanprod-2.3,2013-06-23 16:44:00,
2013-06-23 11:49:00,74.1,64.5,29.78,NW,307,2.0,7.0,72,0.00,,,1.05,vanprod-2.3,2013-06-23 16:49:00,
2013-06-23 11:54:00,73.5,63.5,29.78,South,184,3.0,3.0,71,0.00,,,1.05,vanprod-2.3,2013-06-23 16:54:00,
2013-06-23 11:57:00,73.4,63.8,29.79,SSE,164,3.0,4.0,72,0.00,,,1.05,vanprod-2.3,2013-06-23 16:57:00,
2013-06-23 12:02:00,73.5,63.9,29.79,West,274,2.0,3.0,72,0.00,,,1.05,vanprod-2.3,2013-06-23 17:02:00,
2013-06-23 12:07:00,73.9,64.3,29.79,East,88,2.0,2.0,72,0.00,,,1.05,vanprod-2.3,2013-06-23 17:07:00,
2013-06-23 12:12:00,74.4,64.8,29.79,NNW,329,2.0,2.0,72,0.00,,,1.05,vanprod-2.3,2013-06-23 17:12:00,
2013-06-23 12:17:00,74.9,64.5,29.79,South,177,2.0,10.0,70,0.00,,,1.05,vanprod-2.3,2013-06-23 17:17:00,
2013-06-23 12:22:00,75.3,64.4,29.79,West,271,4.0,6.0,69,0.00,,,1.05,vanprod-2.3,2013-06-23 17:22:00,
2013-06-23 12:27:00,75.3,64.0,29.80,WSW,250,4.0,10.0,68,0.00,,,1.05,vanprod-2.3,2013-06-23 17:27:00,
2013-06-23 12:32:00,75.5,64.2,29.79,WNW,300,4.0,11.0,68,0.00,,,1.05,vanprod-2.3,2013-06-23 17:32:00,
2013-06-23 12:37:00,75.8,63.6,29.79,NW,308,3.0,3.0,66,0.00,,,1.05,vanprod-2.3,2013-06-23 17:37:00,
2013-06-23 12:42:00,75.8,63.6,29.79,WSW,250,3.0,8.0,66,0.00,,,1.05,vanprod-2.3,2013-06-23 17:42:00,
2013-06-23 12:47:00,76.2,64.5,29.79,WNW,295,2.0,3.0,67,0.00,,,1.05,vanprod-2.3,2013-06-23 17:47:00,
2013-06-23 12:52:00,76.3,65.0,29.80,WNW,285,3.0,4.0,68,0.00,,,1.05,vanprod-2.3,2013-06-23 17:52:00,
2013-06-23 12:57:00,76.3,65.0,29.80,NW,326,2.0,5.0,68,0.00,,,1.05,vanprod-2.3,2013-06-23 17:57:00,
2013-06-23 13:02:00,76.9,66.0,29.80,West,261,1.0,6.0,69,0.00,,,1.05,vanprod-2.3,2013-06-23 18:02:00,
2013-06-23 13:07:00,77.2,65.8,29.81,WNW,288,2.0,11.0,68,0.00,,,1.05,vanprod-2.3,2013-06-23 18:07:00,
2013-06-23 13:12:00,77.2,66.3,29.81,West,268,2.0,7.0,69,0.00,,,1.05,vanprod-2.3,2013-06-23 18:12:00,
2013-06-23 13:17:00,77.6,66.6,29.81,WSW,257,2.0,8.0,69,0.00,,,1.05,vanprod-2.3,2013-06-23 18:17:00,
2013-06-23 13:22:00,77.4,64.7,29.81,West,270,2.0,3.0,65,0.00,,,1.05,vanprod-2.3,2013-06-23 18:22:00,
2013-06-23 13:27:00,77.8,66.4,29.82,West,268,1.0,7.0,68,0.00,,,1.05,vanprod-2.3,2013-06-23 18:27:00,
2013-06-23 13:32:00,78.0,65.7,29.82,NW,305,1.0,3.0,66,0.00,,,1.05,vanprod-2.3,2013-06-23 18:32:00,
2013-06-23 13:37:00,78.1,65.4,29.82,SSW,200,2.0,0.0,65,0.00,,,1.05,vanprod-2.3,2013-06-23 18:37:00,
2013-06-23 13:42:00,78.5,67.1,29.82,West,260,2.0,4.0,68,0.00,,,1.05,vanprod-2.3,2013-06-23 18:42:00,
2013-06-23 13:47:00,78.0,64.8,29.82,WNW,288,2.0,7.0,64,0.00,,,1.05,vanprod-2.3,2013-06-23 18:47:00,
2013-06-23 13:52:00,77.8,65.5,29.82,SSE,165,3.0,10.0,66,0.00,,,1.05,vanprod-2.3,2013-06-23 18:52:00,
2013-06-23 13:57:00,78.0,66.2,29.82,WNW,296,2.0,5.0,67,0.00,,,1.05,vanprod-2.3,2013-06-23 18:57:00,
2013-06-23 14:02:00,78.0,64.8,29.82,SW,233,2.0,2.0,64,0.00,,,1.05,vanprod-2.3,2013-06-23 19:02:00,
2013-06-23 14:07:00,77.8,65.1,29.82,WSW,255,4.0,4.0,65,0.00,,,1.05,vanprod-2.3,2013-06-23 19:07:00,
2013-06-23 14:12:00,77.8,65.1,29.82,WNW,302,1.0,4.0,65,0.00,,,1.05,vanprod-2.3,2013-06-23 19:12:00,
2013-06-23 14:17:00,78.0,63.9,29.82,West,268,3.0,3.0,62,0.00,,,1.05,vanprod-2.3,2013-06-23 19:17:00,
2013-06-23 14:22:00,78.1,64.5,29.82,West,271,4.0,6.0,63,0.00,,,1.05,vanprod-2.3,2013-06-23 19:22:00,
2013-06-23 14:27:00,78.1,63.6,29.82,West,281,2.0,2.0,61,0.00,,,1.05,vanprod-2.3,2013-06-23 19:27:00,
2013-06-23 14:32:00,78.5,64.4,29.82,NW,305,4.0,5.0,62,0.00,,,1.05,vanprod-2.3,2013-06-23 19:32:00,
2013-06-23 14:37:00,78.9,64.8,29.82,South,183,1.0,2.0,62,0.00,,,1.05,vanprod-2.3,2013-06-23 19:37:00,
2013-06-23 14:42:00,79.3,64.7,29.82,WNW,293,4.0,16.0,61,0.00,,,1.05,vanprod-2.3,2013-06-23 19:42:00,
2013-06-23 14:47:00,79.3,64.2,29.82,NW,315,2.0,2.0,60,0.00,,,1.05,vanprod-2.3,2013-06-23 19:47:00,
2013-06-23 14:52:00,79.3,65.2,29.81,West,279,3.0,7.0,62,0.00,,,1.05,vanprod-2.3,2013-06-23 19:52:00,
2013-06-23 14:57:00,78.7,63.2,29.81,SW,223,2.0,2.0,59,0.00,,,1.05,vanprod-2.3,2013-06-23 19:57:00,
2013-06-23 15:02:00,79.1,64.0,29.81,West,264,3.0,10.0,60,0.00,,,1.05,vanprod-2.3,2013-06-23 20:02:00,
2013-06-23 15:07:00,79.4,64.3,29.82,West,260,2.0,8.0,60,0.00,,,1.05,vanprod-2.3,2013-06-23 20:07:00,
2013-06-23 15:12:00,79.6,63.5,29.81,WNW,290,2.0,7.0,58,0.00,,,1.05,vanprod-2.3,2013-06-23 20:12:00,
2013-06-23 15:17:00,79.4,62.9,29.82,West,280,3.0,3.0,57,0.00,,,1.05,vanprod-2.3,2013-06-23 20:17:00,
2013-06-23 15:22:00,79.8,62.7,29.82,SSE,150,2.0,2.0,56,0.00,,,1.05,vanprod-2.3,2013-06-23 20:22:00,
2013-06-23 15:27:00,80.0,63.4,29.82,WSW,257,2.0,2.0,57,0.00,,,1.05,vanprod-2.3,2013-06-23 20:27:00,
2013-06-23 15:32:00,80.2,63.1,29.82,WNW,298,2.0,3.0,56,0.00,,,1.05,vanprod-2.3,2013-06-23 20:32:00,
2013-06-23 15:37:00,80.4,63.3,29.82,WNW,287,2.0,5.0,56,0.00,,,1.05,vanprod-2.3,2013-06-23 20:37:00,
2013-06-23 15:42:00,80.6,64.0,29.82,West,273,4.0,7.0,57,0.00,,,1.05,vanprod-2.3,2013-06-23 20:42:00,
2013-06-23 15:47:00,80.2,63.1,29.82,NW,304,3.0,3.0,56,0.00,,,1.05,vanprod-2.3,2013-06-23 20:47:00,
2013-06-23 15:52:00,80.4,62.8,29.82,West,276,3.0,7.0,55,0.00,,,1.05,vanprod-2.3,2013-06-23 20:52:00,
2013-06-23 15:57:00,80.7,63.6,29.82,SSE,155,1.0,2.0,56,0.00,,,1.05,vanprod-2.3,2013-06-23 20:57:00,
2013-06-23 16:02:00,80.9,61.6,29.82,SSW,206,1.0,3.0,52,0.00,,,1.05,vanprod-2.3,2013-06-23 21:02:00,
2013-06-23 16:07:00,81.1,61.8,29.82,WSW,239,3.0,5.0,52,0.00,,,1.05,vanprod-2.3,2013-06-23 21:07:00,
2013-06-23 16:12:00,81.1,61.3,29.82,WSW,239,2.0,2.0,51,0.00,,,1.05,vanprod-2.3,2013-06-23 21:12:00,
2013-06-23 16:17:00,81.5,61.1,29.82,WNW,301,4.0,10.0,50,0.00,,,1.05,vanprod-2.3,2013-06-23 21:17:00,
2013-06-23 16:22:00,81.5,61.1,29.82,NW,317,1.0,1.0,50,0.00,,,1.05,vanprod-2.3,2013-06-23 21:22:00,
2013-06-23 16:27:00,81.7,61.8,29.82,West,274,2.0,3.0,51,0.00,,,1.05,vanprod-2.3,2013-06-23 21:27:00,
2013-06-23 16:32:00,81.5,61.6,29.82,West,278,1.0,3.0,51,0.00,,,1.05,vanprod-2.3,2013-06-23 21:32:00,
2013-06-23 16:37:00,81.5,62.2,29.82,WNW,286,2.0,2.0,52,0.00,,,1.05,vanprod-2.3,2013-06-23 21:37:00,
2013-06-23 16:42:00,81.5,62.2,29.82,West,279,2.0,7.0,52,0.00,,,1.05,vanprod-2.3,2013-06-23 21:42:00,
2013-06-23 16:47:00,81.5,60.5,29.82,WNW,289,4.0,6.0,49,0.00,,,1.05,vanprod-2.3,2013-06-23 21:47:00,
2013-06-23 16:52:00,81.3,60.9,29.82,NW,318,0.0,2.0,50,0.00,,,1.05,vanprod-2.3,2013-06-23 21:52:00,
2013-06-23 16:57:00,81.7,61.8,29.83,West,264,1.0,2.0,51,0.00,,,1.05,vanprod-2.3,2013-06-23 21:57:00,
2013-06-23 17:02:00,81.7,60.1,29.83,South,172,2.0,4.0,48,0.00,,,1.05,vanprod-2.3,2013-06-23 22:02:00,
2013-06-23 17:07:00,81.7,59.5,29.83,West,266,2.0,6.0,47,0.00,,,1.05,vanprod-2.3,2013-06-23 22:07:00,
2013-06-23 17:12:00,81.7,59.5,29.83,West,265,1.0,7.0,47,0.00,,,1.05,vanprod-2.3,2013-06-23 22:12:00,
2013-06-23 17:17:00,81.7,58.9,29.83,NNW,342,1.0,1.0,46,0.00,,,1.05,vanprod-2.3,2013-06-23 22:17:00,
2013-06-23 17:22:00,81.5,59.9,29.84,WSW,246,1.0,5.0,48,0.00,,,1.05,vanprod-2.3,2013-06-23 22:22:00,
2013-06-23 17:27:00,81.3,58.6,29.84,NNW,335,3.0,5.0,46,0.00,,,1.05,vanprod-2.3,2013-06-23 22:27:00,
2013-06-23 17:32:00,81.3,60.9,29.84,WNW,288,2.0,8.0,50,0.00,,,1.05,vanprod-2.3,2013-06-23 22:32:00,
2013-06-23 17:37:00,81.7,59.5,29.83,WNW,294,1.0,5.0,47,0.00,,,1.05,vanprod-2.3,2013-06-23 22:37:00,
2013-06-23 17:42:00,81.7,60.1,29.83,WNW,291,3.0,7.0,48,0.00,,,1.05,vanprod-2.3,2013-06-23 22:42:00,
2013-06-23 17:47:00,81.3,59.2,29.83,WNW,287,3.0,5.0,47,0.00,,,1.05,vanprod-2.3,2013-06-23 22:47:00,
2013-06-23 17:52:00,81.1,57.8,29.83,WNW,287,2.0,2.0,45,0.00,,,1.05,vanprod-2.3,2013-06-23 22:52:00,
2013-06-23 17:57:00,80.9,58.2,29.84,WNW,282,5.0,7.0,46,0.00,,,1.05,vanprod-2.3,2013-06-23 22:57:00,
2013-06-23 18:02:00,80.9,60.5,29.84,West,275,0.0,3.0,50,0.00,,,1.05,vanprod-2.3,2013-06-23 23:02:00,
2013-06-23 18:07:00,80.7,59.2,29.84,West,275,2.0,7.0,48,0.00,,,1.05,vanprod-2.3,2013-06-23 23:07:00,
2013-06-23 18:12:00,80.6,60.3,29.84,West,275,1.0,1.0,50,0.00,,,1.05,vanprod-2.3,2013-06-23 23:12:00,
2013-06-23 18:17:00,80.4,61.2,29.84,West,278,1.0,7.0,52,0.00,,,1.05,vanprod-2.3,2013-06-23 23:17:00,
2013-06-23 18:22:00,80.0,60.3,29.84,WNW,282,3.0,7.0,51,0.00,,,1.05,vanprod-2.3,2013-06-23 23:22:00,
2013-06-23 18:27:00,79.4,59.7,29.84,NW,309,2.0,2.0,51,0.00,,,1.05,vanprod-2.3,2013-06-23 23:27:00,
2013-06-23 18:32:00,79.3,59.6,29.84,NW,309,2.0,3.0,51,0.00,,,1.05,vanprod-2.3,2013-06-23 23:32:00,
2013-06-23 18:37:00,79.3,59.6,29.84,NW,311,2.0,0.0,51,0.00,,,1.05,vanprod-2.3,2013-06-23 23:37:00,
2013-06-23 18:42:00,79.1,60.0,29.84,NW,311,0.0,0.0,52,0.00,,,1.05,vanprod-2.3,2013-06-23 23:42:00,
2013-06-23 18:47:00,78.9,60.9,29.84,NW,311,1.0,1.0,54,0.00,,,1.05,vanprod-2.3,2013-06-23 23:47:00,
2013-06-23 18:52:00,78.9,60.3,29.84,NW,309,3.0,3.0,53,0.00,,,1.05,vanprod-2.3,2013-06-23 23:52:00,
2013-06-23 18:57:00,78.7,60.7,29.85,NW,309,1.0,0.0,54,0.00,,,1.05,vanprod-2.3,2013-06-23 23:57:00,
2013-06-23 19:02:00,78.5,61.0,29.85,NW,309,1.0,2.0,55,0.00,,,1.05,vanprod-2.3,2013-06-24 00:02:00,
2013-06-23 19:07:00,78.3,60.3,29.85,NW,308,1.0,1.0,54,0.00,,,1.05,vanprod-2.3,2013-06-24 00:07:00,
2013-06-23 19:12:00,78.1,60.1,29.85,NW,308,2.0,4.0,54,0.00,,,1.05,vanprod-2.3,2013-06-24 00:12:00,
2013-06-23 19:17:00,78.1,60.1,29.85,NW,308,2.0,4.0,54,0.00,,,1.05,vanprod-2.3,2013-06-24 00:17:00,
2013-06-23 19:22:00,77.8,59.8,29.86,NW,318,4.0,4.0,54,0.00,,,1.05,vanprod-2.3,2013-06-24 00:22:00,
2013-06-23 19:27:00,78.0,59.5,29.86,NW,318,3.0,5.0,53,0.00,,,1.05,vanprod-2.3,2013-06-24 00:27:00,
2013-06-23 19:32:00,78.0,59.0,29.86,NW,317,2.0,5.0,52,0.00,,,1.05,vanprod-2.3,2013-06-24 00:32:00,
2013-06-23 19:37:00,78.0,59.0,29.86,NW,316,2.0,3.0,52,0.00,,,1.05,vanprod-2.3,2013-06-24 00:37:00,
2013-06-23 19:42:00,78.0,59.0,29.86,NW,315,2.0,5.0,52,0.00,,,1.05,vanprod-2.3,2013-06-24 00:42:00,
2013-06-23 19:47:00,77.8,59.3,29.86,NW,315,1.0,2.0,53,0.00,,,1.05,vanprod-2.3,2013-06-24 00:47:00,
2013-06-23 19:52:00,77.6,58.6,29.86,NW,315,1.0,3.0,52,0.00,,,1.05,vanprod-2.3,2013-06-24 00:52:00,
2013-06-23 19:57:00,77.6,59.1,29.87,NW,315,1.0,6.0,53,0.00,,,1.05,vanprod-2.3,2013-06-24 00:57:00,
2013-06-23 20:02:00,77.6,59.1,29.87,NW,315,1.0,1.0,53,0.00,,,1.05,vanprod-2.3,2013-06-24 01:02:00,
2013-06-23 20:07:00,77.6,59.7,29.87,NW,315,1.0,5.0,54,0.00,,,1.05,vanprod-2.3,2013-06-24 01:07:00,
2013-06-23 20:12:00,77.6,60.2,29.87,NW,315,0.0,0.0,55,0.00,,,1.05,vanprod-2.3,2013-06-24 01:12:00,
2013-06-23 20:17:00,77.6,60.2,29.87,NW,315,0.0,0.0,55,0.00,,,1.05,vanprod-2.3,2013-06-24 01:17:00,
2013-06-23 20:22:00,77.4,60.5,29.87,NW,315,0.0,1.0,56,0.00,,,1.05,vanprod-2.3,2013-06-24 01:22:00,
2013-06-23 20:27:00,77.4,60.5,29.87,NW,315,0.0,0.0,56,0.00,,,1.05,vanprod-2.3,2013-06-24 01:27:00,
2013-06-23 20:32:00,77.4,61.0,29.87,NW,315,0.0,0.0,57,0.00,,,1.05,vanprod-2.3,2013-06-24 01:32:00,
2013-06-23 20:37:00,77.1,60.7,29.87,NW,315,0.0,0.0,57,0.00,,,1.05,vanprod-2.3,2013-06-24 01:37:00,
2013-06-23 20:42:00,76.7,60.8,29.87,NW,315,0.0,0.0,58,0.00,,,1.05,vanprod-2.3,2013-06-24 01:42:00,
2013-06-23 20:47:00,76.3,61.4,29.87,NW,315,0.0,0.0,60,0.00,,,1.05,vanprod-2.3,2013-06-24 01:47:00,
2013-06-23 20:52:00,75.8,61.4,29.87,NW,315,0.0,0.0,61,0.00,,,1.05,vanprod-2.3,2013-06-24 01:52:00,
2013-06-23 20:57:00,75.5,61.6,29.87,NW,315,0.0,0.0,62,0.00,,,1.05,vanprod-2.3,2013-06-24 01:57:00,
2013-06-23 21:02:00,74.9,61.9,29.87,NW,315,0.0,0.0,64,0.00,,,1.05,vanprod-2.3,2013-06-24 02:02:00,
2013-06-23 21:07:00,74.6,62.1,29.87,NW,315,0.0,0.0,65,0.00,,,1.05,vanprod-2.3,2013-06-24 02:07:00,
2013-06-23 21:12:00,74.2,61.7,29.87,NW,315,0.0,0.0,65,0.00,,,1.05,vanprod-2.3,2013-06-24 02:12:00,
2013-06-23 21:17:00,73.7,62.1,29.87,NW,315,0.0,0.0,67,0.00,,,1.05,vanprod-2.3,2013-06-24 02:17:00,
2013-06-23 21:22:00,72.8,61.6,29.87,NW,315,0.0,0.0,68,0.00,,,1.05,vanprod-2.3,2013-06-24 02:22:00,
2013-06-23 21:27:00,72.5,61.8,29.87,NW,315,0.0,0.0,69,0.00,,,1.05,vanprod-2.3,2013-06-24 02:27:00,
2013-06-23 21:32:00,72.2,61.9,29.87,NW,315,0.0,0.0,70,0.00,,,1.05,vanprod-2.3,2013-06-24 02:32:00,
2013-06-23 21:37:00,71.8,62.3,29.87,NW,315,0.0,0.0,72,0.00,,,1.05,vanprod-2.3,2013-06-24 02:37:00,
2013-06-23 21:42:00,71.5,62.8,29.87,NW,315,0.0,0.0,74,0.00,,,1.05,vanprod-2.3,2013-06-24 02:42:00,
2013-06-23 21:47:00,71.0,63.1,29.87,NW,315,0.0,0.0,76,0.00,,,1.05,vanprod-2.3,2013-06-24 02:47:00,
2013-06-23 21:52:00,70.4,62.5,29.87,NW,315,0.0,0.0,76,0.00,,,1.05,vanprod-2.3,2013-06-24 02:52:00,
2013-06-23 21:57:00,69.9,62.4,29.87,NW,315,0.0,0.0,77,0.00,,,1.05,vanprod-2.3,2013-06-24 02:57:00,
2013-06-23 22:02:00,69.3,62.2,29.88,NW,315,0.0,0.0,78,0.00,,,1.05,vanprod-2.3,2013-06-24 03:02:00,
2013-06-23 22:07:00,68.9,62.1,29.88,NW,315,0.0,0.0,79,0.00,,,1.05,vanprod-2.3,2013-06-24 03:07:00,
2013-06-23 22:12:00,68.6,62.5,29.88,NW,315,0.0,0.0,81,0.00,,,1.05,vanprod-2.3,2013-06-24 03:12:00,
2013-06-23 22:17:00,68.4,62.7,29.88,NW,315,0.0,0.0,82,0.00,,,1.05,vanprod-2.3,2013-06-24 03:17:00,
2013-06-23 22:22:00,68.3,62.6,29.88,NW,315,0.0,0.0,82,0.00,,,1.05,vanprod-2.3,2013-06-24 03:22:00,
2013-06-23 22:27:00,68.1,62.7,29.88,NW,315,0.0,0.0,83,0.00,,,1.05,vanprod-2.3,2013-06-24 03:27:00,
2013-06-23 22:32:00,67.9,62.6,29.89,NW,315,0.0,0.0,83,0.00,,,1.05,vanprod-2.3,2013-06-24 03:32:00,
2013-06-23 22:37:00,67.8,62.8,29.89,NW,315,0.0,0.0,84,0.00,,,1.05,vanprod-2.3,2013-06-24 03:37:00,
2013-06-23 22:42:00,67.4,62.4,29.89,NW,315,0.0,0.0,84,0.00,,,1.05,vanprod-2.3,2013-06-24 03:42:00,
2013-06-23 22:47:00,67.3,62.3,29.89,NW,315,0.0,0.0,84,0.00,,,1.05,vanprod-2.3,2013-06-24 03:47:00,
2013-06-23 22:52:00,67.1,62.1,29.89,NW,315,0.0,0.0,84,0.00,,,1.05,vanprod-2.3,2013-06-24 03:52:00,
2013-06-23 22:57:00,66.9,62.2,29.89,NW,315,0.0,0.0,85,0.00,,,1.05,vanprod-2.3,2013-06-24 03:57:00,
2013-06-23 23:01:00,66.8,62.5,29.89,NW,315,0.0,0.0,86,0.00,,,1.05,vanprod-2.3,2013-06-24 04:01:00,
2013-06-23 23:06:00,66.6,62.3,29.89,NW,315,0.0,0.0,86,0.00,,,1.05,vanprod-2.3,2013-06-24 04:06:00,
2013-06-23 23:11:00,66.4,62.1,29.89,NW,315,0.0,0.0,86,0.00,,,1.05,vanprod-2.3,2013-06-24 04:11:00,
2013-06-23 23:16:00,66.3,62.3,29.89,NW,315,0.0,0.0,87,0.00,,,1.05,vanprod-2.3,2013-06-24 04:16:00,
2013-06-23 23:21:00,66.1,62.1,29.89,NW,315,0.0,0.0,87,0.00,,,1.05,vanprod-2.3,2013-06-24 04:21:00,
2013-06-23 23:26:00,66.1,62.1,29.89,NW,315,0.0,0.0,87,0.00,,,1.05,vanprod-2.3,2013-06-24 04:26:00,
2013-06-23 23:31:00,65.9,61.9,29.89,NW,315,0.0,0.0,87,0.00,,,1.05,vanprod-2.3,2013-06-24 04:31:00,
2013-06-23 23:36:00,65.8,62.2,29.90,NW,315,0.0,0.0,88,0.00,,,1.05,vanprod-2.3,2013-06-24 04:36:00,
2013-06-23 23:41:00,65.6,62.0,29.90,NW,315,0.0,0.0,88,0.00,,,1.05,vanprod-2.3,2013-06-24 04:41:00,
2013-06-23 23:46:00,65.6,62.0,29.90,NW,315,0.0,0.0,88,0.00,,,1.05,vanprod-2.3,2013-06-24 04:46:00,
2013-06-23 23:51:00,65.6,62.0,29.90,NW,315,0.0,0.0,88,0.00,,,1.05,vanprod-2.3,2013-06-24 04:51:00,
2013-06-23 23:56:00,65.6,62.0,29.90,NW,315,0.0,0.0,88,0.00,,,1.05,vanprod-2.3,2013-06-24 04:56:00,